When you browse on this site, cookies collect data to enhance your experience and personalize the content and advertising you see.
Visit our Privacy Policy to learn more. By continuing to use the site, you agree to this use of cookies and data.
  • In Hungary
  • List of Countries
  • For 7 days
  • Water Temperature
  • Weather Map
  • News
  • Weather Widgets
  • user-avatar
    Login

    Hourly Weather Al-Ladikija

    Today, 15 November, Friday

    Time Temperature Precipitation Wind Pressure Humidity
    00:00 +21°C° 0.1 mm 5 mps 759 mmHg 64%
    01:00 +21°C° 0.1 mm 6 mps 759 mmHg 65%
    02:00 +21°C° 0 mm 7 mps 759 mmHg 61%
    03:00 +21°C° 0 mm 7 mps 759 mmHg 61%
    04:00 +21°C° 0 mm 7 mps 759 mmHg 62%
    05:00 +21°C° 0 mm 7 mps 759 mmHg 62%
    06:00 +21°C° 0.1 mm 7 mps 759 mmHg 59%
    07:00 +22°C° 0.1 mm 7 mps 759 mmHg 56%
    08:00 +22°C° 0 mm 7 mps 760 mmHg 57%
    09:00 +24°C° 0.4 mm 6 mps 760 mmHg 52%
    10:00 +26°C° 0.4 mm 5 mps 760 mmHg 47%
    11:00 +27°C° 0.4 mm 4 mps 759 mmHg 43%
    12:00 +28°C° 0.4 mm 4 mps 759 mmHg 43%
    13:00 +28°C° 0.4 mm 3 mps 759 mmHg 43%
    14:00 +29°C° 0.4 mm 3 mps 758 mmHg 43%
    15:00 +27°C° 0.3 mm 3 mps 759 mmHg 47%
    16:00 +26°C° 0.3 mm 4 mps 759 mmHg 51%
    17:00 +23°C° 0.3 mm 4 mps 759 mmHg 55%
    18:00 +23°C° 0.7 mm 4 mps 759 mmHg 54%
    19:00 +22°C° 0.7 mm 4 mps 759 mmHg 54%
    20:00 +21°C° 0.7 mm 4 mps 759 mmHg 54%
    21:00 +21°C° 0.9 mm 4 mps 759 mmHg 55%
    22:00 +20°C° 0.9 mm 4 mps 760 mmHg 56%
    23:00 +20°C° 0.9 mm 4 mps 760 mmHg 57%

    Tomorrow, 16 November, Saturday

    Time Temperature Precipitation Wind Pressure Humidity
    00:00 +20°C° 0.5 mm 5 mps 760 mmHg 56%
    01:00 +19°C° 0.5 mm 5 mps 760 mmHg 55%
    02:00 +19°C° 0.5 mm 6 mps 760 mmHg 55%
    03:00 +19°C° 0 mm 5 mps 760 mmHg 54%
    04:00 +19°C° 0 mm 4 mps 760 mmHg 53%
    05:00 +18°C° 0 mm 4 mps 760 mmHg 52%
    06:00 +19°C° 0 mm 4 mps 760 mmHg 50%
    07:00 +20°C° 0 mm 4 mps 760 mmHg 48%
    08:00 +21°C° 0 mm 4 mps 760 mmHg 45%
    09:00 +22°C° 0 mm 4 mps 760 mmHg 42%
    10:00 +25°C° 0 mm 4 mps 760 mmHg 39%
    11:00 +27°C° 0 mm 4 mps 760 mmHg 35%
    12:00 +27°C° 0 mm 3 mps 759 mmHg 35%
    13:00 +27°C° 0 mm 3 mps 759 mmHg 34%
    14:00 +28°C° 0 mm 3 mps 759 mmHg 34%
    15:00 +26°C° 0 mm 3 mps 759 mmHg 37%
    16:00 +25°C° 0 mm 3 mps 759 mmHg 41%
    17:00 +22°C° 0 mm 3 mps 759 mmHg 44%
    18:00 +22°C° 0 mm 3 mps 759 mmHg 45%
    19:00 +21°C° 0 mm 3 mps 759 mmHg 46%
    20:00 +21°C° 0 mm 3 mps 760 mmHg 47%
    21:00 +21°C° 0 mm 3 mps 760 mmHg 47%
    22:00 +20°C° 0 mm 4 mps 760 mmHg 48%
    23:00 +20°C° 0 mm 4 mps 760 mmHg 48%

    Day after tomorrow, 17 November, Sunday

    Time Temperature Precipitation Wind Pressure Humidity
    00:00 +20°C° 0 mm 4 mps 760 mmHg 49%
    01:00 +19°C° 0 mm 4 mps 760 mmHg 50%
    02:00 +19°C° 0 mm 4 mps 760 mmHg 50%
    03:00 +19°C° 0 mm 4 mps 760 mmHg 50%
    04:00 +19°C° 0 mm 4 mps 760 mmHg 50%
    05:00 +17°C° 0 mm 5 mps 760 mmHg 50%
    06:00 +19°C° 0 mm 5 mps 761 mmHg 45%
    07:00 +20°C° 0 mm 4 mps 761 mmHg 40%
    08:00 +21°C° 0 mm 4 mps 762 mmHg 35%
    09:00 +22°C° 0 mm 4 mps 761 mmHg 31%
    10:00 +23°C° 0 mm 4 mps 761 mmHg 26%
    11:00 +25°C° 0 mm 4 mps 761 mmHg 21%
    12:00 +26°C° 0 mm 4 mps 761 mmHg 20%
    13:00 +26°C° 0 mm 4 mps 761 mmHg 19%
    14:00 +26°C° 0 mm 4 mps 761 mmHg 18%
    15:00 +23°C° 0 mm 4 mps 761 mmHg 19%
    16:00 +22°C° 0 mm 4 mps 761 mmHg 21%
    17:00 +20°C° 0 mm 4 mps 761 mmHg 22%
    18:00 +20°C° 0 mm 4 mps 762 mmHg 24%
    19:00 +19°C° 0 mm 5 mps 762 mmHg 25%
    20:00 +17°C° 0 mm 5 mps 762 mmHg 26%
    21:00 +17°C° 0 mm 5 mps 762 mmHg 27%
    22:00 +17°C° 0 mm 5 mps 763 mmHg 27%
    23:00 +16°C° 0 mm 5 mps 763 mmHg 27%

    18 November, Monday

    Time Temperature Precipitation Wind Pressure Humidity
    00:00 +16°C° 0 mm 5 mps 763 mmHg 28%
    01:00 +15°C° 0 mm 5 mps 763 mmHg 28%
    02:00 +15°C° 0 mm 5 mps 762 mmHg 28%
    03:00 +15°C° 0 mm 5 mps 763 mmHg 28%
    04:00 +15°C° 0 mm 5 mps 763 mmHg 29%
    05:00 +14°C° 0 mm 5 mps 763 mmHg 29%
    06:00 +15°C° 0 mm 5 mps 763 mmHg 28%
    07:00 +16°C° 0 mm 5 mps 763 mmHg 28%
    08:00 +17°C° 0 mm 5 mps 763 mmHg 27%
    09:00 +19°C° 0 mm 4 mps 763 mmHg 25%
    10:00 +21°C° 0 mm 4 mps 763 mmHg 22%
    11:00 +23°C° 0 mm 4 mps 763 mmHg 20%
    12:00 +24°C° 0 mm 3 mps 763 mmHg 20%
    13:00 +24°C° 0 mm 3 mps 763 mmHg 20%
    14:00 +24°C° 0 mm 3 mps 763 mmHg 20%
    15:00 +22°C° 0 mm 3 mps 763 mmHg 22%
    16:00 +20°C° 0 mm 3 mps 763 mmHg 23%
    17:00 +19°C° 0 mm 3 mps 763 mmHg 25%
    18:00 +18°C° 0 mm 3 mps 763 mmHg 27%
    19:00 +17°C° 0 mm 3 mps 763 mmHg 28%
    20:00 +17°C° 0 mm 3 mps 763 mmHg 29%
    21:00 +16°C° 0 mm 3 mps 763 mmHg 29%
    22:00 +16°C° 0 mm 3 mps 763 mmHg 29%
    23:00 +16°C° 0 mm 2 mps 763 mmHg 29%

    19 November, Tuesday

    Time Temperature Precipitation Wind Pressure Humidity
    00:00 +15°C° 0 mm 2 mps 763 mmHg 28%
    01:00 +15°C° 0 mm 2 mps 763 mmHg 28%
    02:00 +15°C° 0 mm 2 mps 763 mmHg 27%
    03:00 +15°C° 0 mm 2 mps 763 mmHg 26%
    04:00 +15°C° 0 mm 2 mps 763 mmHg 25%
    05:00 +15°C° 0 mm 2 mps 763 mmHg 25%
    06:00 +16°C° 0 mm 2 mps 763 mmHg 24%
    07:00 +17°C° 0 mm 2 mps 763 mmHg 24%
    08:00 +19°C° 0 mm 1 mps 764 mmHg 23%
    09:00 +21°C° 0 mm 1 mps 763 mmHg 20%
    10:00 +23°C° 0 mm 1 mps 763 mmHg 17%
    11:00 +24°C° 0 mm 1 mps 763 mmHg 14%
    12:00 +25°C° 0 mm 1 mps 763 mmHg 15%
    13:00 +25°C° 0 mm 2 mps 762 mmHg 16%
    14:00 +25°C° 0 mm 2 mps 762 mmHg 17%
    15:00 +23°C° 0 mm 2 mps 762 mmHg 21%
    16:00 +20°C° 0 mm 2 mps 762 mmHg 25%
    17:00 +18°C° 0 mm 2 mps 762 mmHg 29%
    18:00 +18°C° 0 mm 2 mps 762 mmHg 26%
    19:00 +18°C° 0 mm 2 mps 762 mmHg 23%
    20:00 +17°C° 0 mm 2 mps 762 mmHg 20%
    21:00 +17°C° 0 mm 2 mps 762 mmHg 20%
    22:00 +17°C° 0 mm 2 mps 762 mmHg 21%
    23:00 +16°C° 0 mm 2 mps 762 mmHg 21%

    20 November, Wednesday

    Time Temperature Precipitation Wind Pressure Humidity
    00:00 +16°C° 0 mm 2 mps 762 mmHg 22%
    01:00 +16°C° 0 mm 2 mps 762 mmHg 22%
    02:00 +16°C° 0 mm 1 mps 762 mmHg 22%
    03:00 +16°C° 0 mm 1 mps 762 mmHg 22%
    04:00 +15°C° 0 mm 1 mps 762 mmHg 22%
    05:00 +15°C° 0 mm 1 mps 762 mmHg 23%
    06:00 +16°C° 0 mm 1 mps 762 mmHg 23%
    07:00 +19°C° 0 mm 1 mps 762 mmHg 23%
    08:00 +20°C° 0 mm 1 mps 762 mmHg 24%
    09:00 +21°C° 0 mm 1 mps 762 mmHg 22%
    10:00 +23°C° 0 mm 1 mps 762 mmHg 21%
    11:00 +24°C° 0 mm 1 mps 762 mmHg 19%
    12:00 +24°C° 0 mm 1 mps 762 mmHg 22%
    13:00 +24°C° 0 mm 1 mps 761 mmHg 24%
    14:00 +24°C° 0 mm 1 mps 761 mmHg 27%
    15:00 +22°C° 0 mm 1 mps 761 mmHg 34%
    16:00 +20°C° 0 mm 1 mps 761 mmHg 42%
    17:00 +18°C° 0 mm 1 mps 761 mmHg 49%
    18:00 +18°C° 0 mm 1 mps 761 mmHg 48%
    19:00 +18°C° 0 mm 1 mps 761 mmHg 48%
    20:00 +16°C° 0 mm 1 mps 761 mmHg 48%
    21:00 +16°C° 0 mm 1 mps 761 mmHg 48%
    22:00 +16°C° 0 mm 1 mps 761 mmHg 48%
    23:00 +16°C° 0 mm 1 mps 761 mmHg 48%
    Show more